User: anonymous   Login
Location: Hope
(40.9110°N, 74.9680°W)
Time: 07:51:25
(UTC-05:00)
Language:

FORTE - Orbit

View from above orbital plane
View from above orbital plane
View from above satellite
View from above satellite

Ground track
Ground track

The orbit data is extracted from the following two-line orbital elements,

1 24920U 97047A   21339.85687576  .00000064  00000-0  50431-4 0  9991
2 24920  69.9522 145.6864 0022346   3.0923 357.0332 14.26461839262658
Epoch (UTC): 05 December 2021 20:33:54
Eccentricity: 0.0022346
inclination: 69.9522°
perigee height: 787 km
apogee height: 819 km
right ascension of ascending node: 145.6864°
argument of perigee: 3.0923°
revolutions per day: 14.26461839
mean anomaly at epoch: 357.0332°
orbit number at epoch: 26265

The dashed part of the orbit path shows where the satellite is in the earth's shadow,  

DLR